CAPE
0 0 0 0 0 0 0 0 0 0 29 50 63 95 82 57 12 9 0 0 2 429 693 209 215 128 22 91 78 81 192 203 208 204 245 304 424 553 567 266 104 6 0 0 0 0 0 0 0
0 0 0 0 0 0 0 0 0 0 22 52 133 139 134 54 26 12 23 74 60 525 522 124 309 327 78 58 56 47 156 200 166 154 159 275 520 645 507 160 18 0 0 0 0 0 0 0 0
0 0 0 0 0 0 0 0 0 0 25 26 29 103 124 124 92 48 39 205 391 667 463 158 501 591 246 110 86 140 288 231 168 114 173 313 568 656 457 149 1 0 0 0 0 0 0 0 0
0 0 0 0 0 0 0 0 0 0 37 40 49 113 119 78 85 51 405 595 411 645 435 489 764 763 550 181 185 273 355 269 168 170 237 384 598 661 436 64 0 0 0 0 0 0 0 0 0
0 0 0 0 0 0 0 0 0 0 42 165 94 206 123 125 166 306 394 547 192 464 497 829 945 999 860 363 326 339 362 257 261 311 308 345 592 743 418 56 0 0 0 0 0 0 0 0 0
0 0 0 0 0 0 0 0 0 0 57 252 202 198 99 270 276 526 617 353 531 294 543 965 928 948 1099 716 368 337 353 339 360 314 314 343 534 658 543 185 3 0 0 0 0 0 0 0 0
0 0 0 0 0 0 0 0 0 0 56 237 244 181 86 216 387 679 594 586 570 538 778 986 888 945 1082 915 376 388 390 328 291 318 322 314 358 461 582 368 79 0 0 0 0 0 0 8 41
0 0 0 0 0 0 0 0 0 2 59 191 152 138 104 146 388 433 398 406 513 695 805 918 954 855 899 1055 667 450 334 311 291 326 398 345 309 275 351 324 284 119 29 1 11 21 58 114 102
0 0 0 0 0 0 0 0 0 0 112 245 181 166 125 205 290 314 186 228 395 569 660 883 835 960 889 805 709 468 410 368 338 405 432 370 314 225 175 218 282 338 410 348 316 309 438 446 252
0 0 0 0 0 0 0 0 0 0 6 163 195 153 183 251 286 275 193 93 102 171 266 415 523 544 574 697 504 503 420 510 445 433 363 437 205 128 136 205 256 375 413 654 815 814 911 954 280
0 0 0 0 0 0 0 0 0 0 0 106 240 289 222 242 273 299 233 155 67 41 158 241 249 338 378 364 339 387 360 415 451 406 355 400 302 181 199 175 115 209 412 568 658 913 957 588 41
0 0 0 0 0 0 0 0 0 0 0 20 133 246 221 246 277 338 343 228 111 78 56 191 264 269 251 223 175 215 295 374 362 456 451 388 247 181 67 24 33 64 144 386 523 566 512 57 0
0 0 0 0 0 0 0 0 0 0 0 0 2 124 156 240 289 385 458 347 173 69 60 122 256 194 189 194 184 215 244 243 341 422 462 443 218 118 77 47 67 143 214 332 460 485 272 0 0
0 0 0 0 0 0 0 0 0 0 0 0 3 58 93 193 306 427 549 576 340 173 80 97 190 193 217 142 127 184 201 292 356 370 380 410 317 149 74 149 344 506 512 481 447 277 21 0 0
0 0 0 0 0 0 0 0 0 0 0 0 1 62 74 160 310 434 532 594 539 412 267 164 148 196 154 117 106 165 178 260 231 235 304 351 340 196 138 206 434 431 380 321 91 0 0 0 0
0 0 0 0 0 0 0 0 0 0 0 0 1 87 122 172 271 295 488 510 555 554 522 409 288 228 130 72 85 113 196 195 146 203 270 355 341 358 284 271 362 97 36 15 0 0 0 0 0
0 0 0 0 0 0 0 0 0 0 0 0 0 5 102 250 430 354 204 411 626 623 624 566 446 382 239 84 70 86 201 252 249 350 431 453 481 534 497 244 122 3 0 0 0 0 0 0 0
0 0 0 0 0 0 0 0 0 0 0 0 0 0 0 144 270 499 357 187 305 660 710 594 566 511 386 179 107 132 214 273 425 554 627 698 706 708 414 133 19 1 8 16 0 0 0 0 0
0 0 0 0 0 0 0 0 0 0 0 0 0 0 0 0 25 386 468 384 169 131 487 653 603 600 513 387 294 176 275 385 476 585 621 593 647 593 270 63 12 0 0 0 0 0 0 0 0
0 0 0 0 0 0 0 0 0 0 0 0 0 0 0 0 0 6 335 413 338 193 142 289 493 535 607 577 482 414 489 510 559 510 538 473 442 374 221 162 0 0 0 0 0 0 0 0 0
0 0 0 0 0 0 0 0 0 0 0 0 0 0 0 0 0 0 12 246 434 332 156 102 206 351 493 545 506 532 517 575 648 675 579 403 307 277 214 100 2 0 0 0 0 0 0 0 0
0 0 0 0 0 0 0 0 0 0 0 0 0 0 80 1 0 0 0 17 147 315 98 80 105 199 291 412 485 643 669 650 650 634 453 427 281 143 70 18 7 0 0 0 0 0 0 0 0
0 0 0 0 0 0 0 0 0 0 0 0 0 0 4 504 136 2 0 0 0 119 165 109 144 175 235 351 470 532 575 488 425 446 434 344 172 92 29 0 0 0 0 0 0 0 0 0 0
0 0 0 0 0 0 0 0 0 0 0 0 0 0 0 147 486 654 435 206 234 237 220 165 188 194 263 335 469 499 570 603 499 367 339 237 141 91 47 1 0 0 0 0 0 0 0 0 0
0 0 0 0 0 0 0 0 0 0 0 0 0 0 0 53 539 892 925 832 674 795 612 483 421 381 396 437 542 682 724 656 706 599 409 220 81 59 0 0 0 0 0 0 0 0 0 0 0
0 0 0 0 0 0 0 0 0 0 0 0 0 0 0 0 564 1613 1789 1500 1274 1183 1151 1058 965 907 965 861 779 895 943 915 760 612 388 188 119 16 0 0 0 0 0 0 0 0 0 0 0
0 0 0 0 0 0 0 0 0 0 0 0 0 0 0 9 11 103 1501 2169 2010 1782 1762 1720 1699 1646 1789 1983 1959 2024 1511 934 917 498 283 242 140 3 0 0 0 0 0 0 0 0 0 0 0
0 0 0 0 0 0 0 0 0 0 0 0 0 0 207 354 274 314 323 643 1781 2129 2185 2274 2351 2560 2364 1400 915 873 759 473 473 486 323 264 83 0 0 0 0 0 0 0 0 0 0 0 0
0 0 0 0 0 0 0 0 0 0 0 0 0 323 365 419 521 593 822 1032 1371 1691 2004 2196 2236 1203 363 1 1 1 11 19 7 41 45 13 1 0 0 0 0 0 0 0 0 0 0 0 0
0 0 0 0 0 0 0 0 0 0 0 0 5 6 13 41 99 371 738 990 1213 1433 1886 2079 1245 691 168 143 7 0 0 0 2 0 0 0 0 0 0 0 0 0 0 0 0 0 0 0 0
CIN
-0 -0 -0 -0 -0 -0 -0 -0 -0 -0 -103 -174 -230 -188 -131 -107 -27 -13 -0 -0 -102 -312 -249 -325 -249 -243 -305 -249 -258 -266 -230 -225 -230 -230 -220 -196 -165 -138 -134 -193 -242 -322 -0 -0 -0 -0 -0 -0 -0
-0 -0 -0 -0 -0 -0 -0 -0 -0 -0 -95 -179 -145 -142 -140 -66 -212 -353 -497 -551 -463 -306 -289 -369 -240 -212 -271 -249 -263 -263 -231 -220 -238 -252 -245 -198 -144 -125 -141 -221 -337 -0 -0 -0 -0 -0 -0 -0 -0
-0 -0 -0 -0 -0 -0 -0 -0 -0 -0 -154 -164 -129 -144 -125 -101 -271 -373 -562 -484 -370 -274 -293 -331 -201 -170 -212 -260 -258 -246 -211 -219 -244 -257 -230 -190 -146 -139 -160 -215 -53 -0 -0 -0 -0 -0 -0 -0 -0
-0 -0 -0 -0 -0 -0 -0 -0 -0 -0 -123 -199 -169 -87 -209 -362 -288 -456 -469 -383 -357 -260 -269 -221 -161 -154 -165 -230 -242 -229 -212 -229 -250 -252 -239 -200 -158 -154 -175 -278 -0 -0 -0 -0 -0 -0 -0 -0 -0
-0 -0 -0 -0 -0 -0 -0 -0 -0 -0 -118 -128 -156 -77 -158 -371 -429 -428 -412 -364 -355 -261 -233 -168 -136 -127 -137 -199 -220 -229 -224 -245 -249 -245 -243 -220 -173 -148 -189 -299 -0 -0 -0 -0 -0 -0 -0 -0 -0
-0 -0 -0 -0 -0 -0 -0 -0 -0 -0 -126 -137 -133 -132 -205 -500 -424 -384 -352 -360 -278 -268 -233 -156 -163 -153 -129 -170 -225 -240 -243 -249 -245 -257 -253 -236 -191 -154 -169 -262 -92 -0 -0 -0 -0 -0 -0 -0 -0
-0 -0 -0 -0 -0 -0 -0 -0 -0 -0 -92 -80 -160 -114 -279 -457 -504 -418 -398 -330 -271 -225 -183 -161 -186 -164 -149 -174 -236 -244 -253 -261 -275 -260 -264 -260 -228 -198 -174 -220 -327 -0 -0 -0 -0 -0 -0 -248 -264
-0 -0 -0 -0 -0 -0 -0 -0 -0 -27 -67 -143 -169 -108 -120 -370 -527 -488 -433 -367 -261 -186 -173 -169 -175 -199 -201 -174 -197 -240 -270 -281 -291 -269 -251 -261 -253 -264 -247 -251 -256 -318 -346 -15 -354 -337 -294 -248 -242
-0 -0 -0 -0 -0 -0 -0 -0 -0 -0 -91 -99 -158 -214 -262 -494 -606 -536 -517 -433 -306 -224 -213 -186 -203 -188 -205 -216 -218 -246 -265 -275 -276 -271 -259 -276 -290 -317 -331 -302 -283 -257 -225 -234 -240 -227 -186 -165 -190
-0 -0 -0 -0 -0 -0 -0 -0 -0 -0 -27 -82 -118 -277 -445 -549 -511 -480 -475 -443 -449 -388 -351 -303 -283 -277 -267 -239 -275 -278 -288 -268 -288 -286 -309 -294 -351 -383 -381 -331 -288 -248 -224 -173 -134 -121 -98 -78 -184
-0 -0 -0 -0 -0 -0 -0 -0 -0 -0 -0 -99 -40 -157 -437 -477 -513 -490 -454 -415 -434 -474 -450 -409 -400 -358 -314 -313 -353 -338 -349 -331 -320 -331 -345 -328 -355 -400 -381 -377 -374 -309 -230 -183 -154 -101 -87 -133 -278
-0 -0 -0 -0 -0 -0 -0 -0 -0 -0 -0 -70 -88 -208 -355 -370 -462 -443 -422 -449 -518 -573 -550 -505 -480 -448 -443 -445 -465 -453 -416 -395 -384 -362 -366 -377 -412 -430 -460 -465 -414 -384 -316 -215 -183 -156 -157 -286 -0
-0 -0 -0 -0 -0 -0 -0 -0 -0 -0 -0 -0 -12 -247 -252 -327 -424 -457 -434 -434 -533 -568 -600 -572 -582 -570 -558 -538 -539 -533 -491 -486 -449 -426 -408 -392 -439 -447 -455 -434 -410 -345 -297 -233 -183 -170 -211 -0 -0
-0 -0 -0 -0 -0 -0 -0 -0 -0 -0 -0 -0 -116 -160 -240 -286 -352 -433 -454 -405 -497 -543 -601 -648 -627 -644 -627 -610 -629 -572 -549 -505 -485 -455 -436 -423 -425 -448 -470 -382 -296 -234 -217 -207 -205 -234 -303 -0 -0
-0 -0 -0 -0 -0 -0 -0 -0 -0 -0 -0 -0 -22 -174 -224 -282 -412 -388 -403 -434 -418 -469 -536 -600 -634 -678 -685 -675 -665 -621 -585 -558 -526 -491 -466 -430 -430 -437 -419 -347 -232 -216 -255 -313 -373 -0 -0 -0 -0
-0 -0 -0 -0 -0 -0 -0 -0 -0 -0 -0 -0 -15 -188 -202 -246 -313 -438 -465 -434 -478 -475 -477 -503 -586 -650 -699 -684 -684 -671 -613 -552 -548 -499 -463 -409 -398 -379 -351 -279 -209 -314 -353 -270 -0 -0 -0 -0 -0
-0 -0 -0 -0 -0 -0 -0 -0 -0 -0 -0 -0 -0 -78 -193 -204 -265 -374 -471 -429 -423 -457 -480 -487 -571 -531 -583 -678 -673 -648 -571 -523 -502 -464 -394 -344 -325 -329 -301 -232 -196 -151 -0 -0 -0 -0 -0 -0 -0
-0 -0 -0 -0 -0 -0 -0 -0 -0 -0 -0 -0 -0 -0 -0 -212 -180 -225 -350 -458 -441 -433 -482 -491 -511 -523 -549 -614 -686 -634 -578 -539 -493 -409 -370 -320 -290 -254 -290 -354 -372 -180 -60 -104 -0 -0 -0 -0 -0
-0 -0 -0 -0 -0 -0 -0 -0 -0 -0 -0 -0 -0 -0 -0 -0 -134 -209 -252 -336 -429 -503 -457 -490 -495 -494 -555 -529 -504 -548 -482 -472 -493 -448 -380 -357 -319 -297 -352 -390 -348 -0 -0 -0 -0 -0 -0 -0 -0
-0 -0 -0 -0 -0 -0 -0 -0 -0 -0 -0 -0 -0 -0 -0 -0 -0 -59 -231 -317 -341 -402 -459 -552 -490 -511 -477 -491 -497 -499 -443 -487 -451 -449 -394 -392 -357 -365 -341 -313 -0 -0 -4 -0 -0 -0 -0 -0 -0
-0 -0 -0 -0 -0 -0 -0 -0 -0 -0 -0 -0 -0 -0 -0 -0 -0 -0 -89 -282 -316 -333 -473 -508 -544 -479 -467 -503 -553 -538 -549 -496 -387 -363 -357 -383 -360 -340 -351 -295 -135 -0 -0 -0 -0 -0 -0 -0 -0
-0 -0 -0 -0 -0 -0 -0 -0 -0 -0 -0 -0 -0 -0 -327 -30 -0 -0 -0 -304 -317 -399 -515 -500 -617 -511 -504 -491 -425 -336 -276 -239 -302 -325 -352 -298 -338 -358 -356 -243 -169 -0 -0 -0 -0 -0 -0 -0 -0
-0 -0 -0 -0 -0 -0 -0 -0 -0 -0 -0 -0 -0 -0 -283 -269 -271 -18 -0 -0 -8 -577 -531 -624 -590 -468 -543 -484 -470 -382 -339 -369 -420 -375 -299 -278 -320 -344 -314 -0 -0 -0 -0 -0 -0 -0 -0 -0 -0
-0 -0 -0 -0 -0 -0 -0 -0 -0 -0 -0 -0 -0 -0 -0 -174 -211 -216 -323 -481 -479 -616 -626 -614 -514 -485 -568 -568 -508 -429 -340 -302 -271 -269 -227 -219 -254 -322 -304 -140 -0 -0 -0 -0 -0 -0 -0 -0 -0
-0 -0 -0 -0 -0 -0 -0 -0 -0 -0 -0 -0 -0 -0 -0 -213 -166 -156 -187 -254 -346 -396 -477 -486 -416 -351 -508 -542 -469 -385 -310 -274 -225 -209 -233 -287 -346 -378 -0 -0 -0 -0 -0 -0 -0 -0 -0 -0 -0
-0 -0 -0 -0 -0 -0 -0 -0 -0 -0 -0 -0 -0 -0 -0 -0 -226 -161 -180 -156 -121 -239 -272 -352 -375 -346 -408 -366 -312 -332 -307 -251 -251 -249 -268 -292 -329 -395 -0 -0 -0 -0 -0 -0 -0 -0 -0 -0 -0
-0 -0 -0 -0 -0 -0 -0 -0 -0 -0 -0 -0 -0 -0 -0 -41 -48 -311 -205 -185 -204 -177 -221 -261 -306 -336 -307 -249 -254 -200 -225 -232 -220 -277 -323 -302 -325 -120 -0 -0 -0 -0 -0 -0 -0 -0 -0 -0 -0
-0 -0 -0 -0 -0 -0 -0 -0 -0 -0 -0 -0 -0 -0 -282 -313 -288 -277 -337 -345 -301 -303 -324 -340 -292 -225 -222 -233 -212 -195 -223 -253 -238 -226 -238 -281 -387 -0 -0 -0 -0 -0 -0 -0 -0 -0 -0 -0 -0
-0 -0 -0 -0 -0 -0 -0 -0 -0 -0 -0 -0 -0 -263 -309 -322 -351 -368 -366 -389 -357 -395 -380 -317 -283 -296 -491 -0 -0 -0 -132 -230 -97 -369 -381 -130 -87 -0 -0 -0 -0 -0 -0 -0 -0 -0 -0 -0 -0
-0 -0 -0 -0 -0 -0 -0 -0 -0 -0 -0 -0 -467 -22 -506 -516 -482 -445 -437 -406 -409 -418 -349 -310 -313 -501 -639 -571 -344 -2 -0 -0 -271 -0 -0 -0 -0 -0 -0 -0 -0 -0 -0 -0 -0 -0 -0 -0 -0
Wind_Speed
19 17 17 17 18 18 20 20 18 18 18 17 18 17 17 19 16 17 16 12 13 15 17 18 17 14 14 14 14 15 16 16 16 17 17 18 18 18 18 17 16 16 16 16 17 17 17 17 17
18 18 17 16 18 20 21 18 18 14 14 17 17 18 18 20 16 17 15 13 15 15 14 15 16 15 14 13 14 14 15 15 16 16 17 17 17 17 16 15 15 15 16 16 15 15 16 16 16
17 18 16 16 17 20 20 19 21 19 11 16 19 17 18 19 16 13 13 13 13 15 14 13 12 12 13 14 14 14 14 15 15 16 16 16 16 15 14 13 14 14 15 14 14 14 14 15 15
16 17 15 14 17 18 18 20 22 13 14 15 15 20 18 13 14 14 15 14 12 14 15 13 10 11 13 14 14 13 13 15 16 16 15 16 15 14 13 13 14 14 13 13 13 13 13 13 14
16 15 14 14 16 16 18 20 21 10 16 19 14 19 20 16 17 16 15 14 14 16 15 15 10 9 13 14 13 14 15 16 16 15 15 15 14 12 12 13 14 13 13 12 12 12 11 11 13
13 12 12 12 13 17 19 23 24 13 11 16 13 14 18 14 16 15 15 16 16 17 17 16 15 12 14 14 16 17 17 17 16 16 15 14 13 13 13 13 13 13 13 13 11 10 9 11 12
7 9 8 6 14 14 17 26 27 15 9 12 13 14 8 12 13 15 15 15 15 15 17 18 16 17 17 18 20 20 18 18 17 16 15 15 15 14 12 13 14 14 13 11 9 8 9 10 11
8 7 5 5 9 10 15 24 27 19 9 12 12 13 12 12 15 16 15 15 16 15 16 18 17 19 20 21 22 21 20 19 18 17 17 16 14 14 14 15 15 13 11 9 7 7 7 9 11
9 5 7 10 7 7 13 17 17 16 10 10 9 10 12 16 18 17 15 16 16 15 17 21 22 23 22 22 22 23 22 21 20 19 17 16 16 16 16 14 14 12 11 9 7 6 8 12 14
8 4 8 11 5 9 17 6 4 12 10 4 4 10 13 16 16 16 17 17 18 19 22 22 23 25 24 24 23 23 22 21 20 19 18 19 18 16 13 14 14 12 10 8 6 6 9 13 14
10 6 3 22 13 6 9 6 13 11 9 6 7 7 11 13 14 15 16 19 21 22 22 24 25 24 25 24 23 22 21 21 21 21 20 19 16 14 14 13 11 8 7 6 5 6 9 10 12
12 7 5 10 18 15 1 13 9 5 5 8 3 7 9 12 13 14 17 19 20 21 24 24 26 26 26 24 23 23 23 23 22 21 19 16 14 12 11 9 7 6 4 4 3 4 9 11 14
12 14 10 15 23 20 22 2 6 4 1 6 5 9 11 11 12 14 16 18 19 22 23 24 24 26 26 26 25 24 23 22 21 19 17 15 12 10 7 6 3 2 3 2 5 7 9 12 15
16 19 26 8 19 10 3 2 9 9 3 5 7 14 14 14 12 13 16 19 20 21 22 22 23 23 23 24 23 22 21 20 17 16 14 11 9 8 5 2 2 4 5 6 7 8 11 12 15
19 21 21 15 18 19 9 25 16 16 8 3 10 15 14 16 14 17 20 21 22 21 20 20 20 21 22 22 22 21 19 17 16 14 12 10 8 7 5 2 5 9 12 10 11 12 12 13 16
17 16 17 20 23 20 22 25 26 22 9 4 7 15 16 17 19 18 20 22 21 20 19 18 19 18 19 21 19 18 16 15 14 12 8 7 6 5 5 6 7 18 17 19 19 14 13 16 18
16 16 19 23 21 24 23 24 30 26 12 9 6 14 17 17 22 20 18 21 20 19 20 16 16 16 18 16 16 14 11 12 11 8 7 7 6 7 9 15 20 17 17 14 21 10 14 17 17
17 18 21 23 24 25 25 26 31 23 16 14 7 7 12 15 20 25 17 16 20 18 18 18 14 14 13 11 8 9 10 12 10 10 11 10 9 12 15 16 16 17 24 7 13 7 14 16 15
18 19 22 27 23 24 27 31 33 30 24 20 12 4 8 12 20 18 16 16 16 20 21 19 14 13 9 9 9 9 14 11 10 10 11 12 14 16 15 13 11 18 12 8 8 9 13 16 18
19 22 24 23 22 23 30 33 27 28 30 29 28 27 5 11 18 20 18 15 19 20 21 16 18 12 12 10 8 9 10 12 14 15 15 17 17 15 13 13 14 20 14 15 4 7 14 19 20
18 18 21 22 27 23 29 20 26 31 29 28 26 26 17 8 15 18 18 22 19 22 16 16 15 13 12 11 10 13 16 19 20 19 18 18 17 15 15 13 13 13 13 12 4 7 12 17 21
20 22 20 23 25 22 23 21 26 30 30 30 28 25 25 20 16 12 16 28 21 15 9 12 11 12 12 10 12 14 16 17 21 21 21 21 22 21 16 15 13 9 15 6 4 9 13 18 21
16 20 16 19 19 15 22 18 24 28 28 29 28 27 26 26 24 22 23 17 17 4 5 6 8 12 10 11 11 12 14 17 21 22 22 22 21 17 15 17 11 12 8 5 8 11 15 18 21
14 16 17 18 19 18 17 18 21 26 28 29 27 27 29 29 27 25 23 21 18 9 5 1 4 6 7 10 11 13 14 15 18 20 20 16 14 13 15 11 10 10 7 8 10 13 15 17 21
18 21 23 20 20 12 14 13 11 8 10 28 29 29 30 31 28 25 24 24 23 17 12 6 4 3 7 9 11 13 15 15 16 16 16 16 13 12 10 10 5 5 8 10 12 14 16 18 21
18 19 19 18 20 10 17 16 14 18 28 25 29 29 29 29 29 27 25 22 22 15 10 8 10 12 11 12 12 15 17 18 19 20 18 13 10 9 7 6 7 7 9 10 12 15 17 18 19
18 22 18 17 19 20 17 18 11 26 32 32 30 32 32 32 31 29 28 25 19 18 18 13 14 14 14 15 18 19 22 23 20 20 15 10 9 8 8 8 8 9 10 12 14 17 19 21 23
19 18 22 22 20 19 19 22 23 30 31 32 31 31 33 32 33 33 33 32 28 23 22 20 17 17 19 25 29 28 27 27 26 22 16 11 10 9 8 8 8 10 12 15 17 21 23 25 26
23 23 23 21 19 18 19 17 18 29 32 34 31 31 32 34 34 34 34 34 33 29 28 23 20 24 26 28 35 40 38 35 33 26 20 16 13 12 10 10 12 14 16 18 20 22 25 26 27
19 21 22 23 22 20 18 18 21 32 31 31 31 32 32 33 34 35 36 36 36 32 26 23 24 20 19 21 27 43 43 29 24 24 22 19 16 14 13 14 16 17 18 19 21 23 26 27 30
Wind_Direction
336 324 330 351 7 8 9 14 25 28 29 29 30 21 3 1 25 20 24 76 100 116 124 125 121 110 103 99 95 93 93 92 91 92 93 94 95 93 90 83 79 75 77 78 74 69 63 55 49
325 321 334 358 3 359 358 22 24 50 37 10 22 25 16 358 23 25 57 92 113 118 123 125 123 115 108 103 99 96 94 91 94 94 98 97 98 92 84 75 74 77 80 79 73 67 61 50 39
325 311 348 356 5 353 352 6 359 348 67 2 346 34 29 17 36 60 60 91 104 119 123 125 120 115 110 109 105 101 98 97 99 101 104 102 100 91 79 74 75 83 83 79 73 66 60 45 32
333 328 343 354 352 359 16 1 316 43 24 7 15 5 31 67 60 76 74 90 102 119 125 127 123 116 113 113 111 106 105 107 111 111 109 110 104 91 79 79 86 92 84 81 75 70 64 54 40
327 336 339 343 349 10 22 19 353 39 1 357 20 7 18 62 61 74 90 96 110 123 129 128 127 120 119 119 118 118 120 123 121 118 116 117 109 92 86 98 102 97 94 92 96 91 77 55 33
336 340 335 341 357 358 6 356 0 35 47 30 41 26 27 64 68 80 94 103 115 124 131 132 132 129 129 128 132 134 134 133 128 129 126 122 112 108 108 106 109 111 115 116 109 93 66 37 23
346 336 336 17 350 8 16 340 343 35 67 54 48 43 90 75 77 84 87 91 106 117 130 136 136 139 140 142 147 147 144 143 141 140 136 133 133 122 113 119 128 134 131 121 102 65 46 36 27
345 335 345 45 22 54 27 1 340 9 71 39 43 60 59 76 83 80 77 89 108 116 131 140 142 146 150 153 157 156 155 155 153 150 149 142 137 136 138 142 148 141 133 116 88 81 59 36 22
343 352 149 146 37 55 16 13 25 25 27 32 50 49 59 86 83 83 84 102 116 122 136 149 154 158 157 157 162 165 167 164 161 157 153 148 152 155 154 152 153 151 149 140 124 90 36 14 6
23 71 146 149 64 203 240 40 74 40 48 82 79 42 61 93 95 97 107 123 137 142 153 154 158 163 164 165 165 167 167 166 164 162 160 163 167 162 152 161 163 156 157 145 121 66 27 10 6
45 82 77 208 195 175 208 234 21 40 50 64 139 104 88 100 107 108 122 135 141 150 148 159 163 164 165 167 166 165 166 167 170 173 171 170 162 160 160 161 154 143 143 124 76 44 26 20 13
28 59 91 177 215 235 102 354 16 38 41 25 135 125 115 128 128 124 133 142 147 150 161 160 166 168 170 169 169 170 171 175 177 177 171 166 163 158 158 155 144 135 123 113 86 45 18 13 11
30 5 11 203 238 230 320 267 347 218 16 358 39 128 144 145 142 144 146 149 150 158 161 163 162 168 171 174 175 174 176 176 178 175 173 169 167 166 153 151 104 64 45 54 20 16 14 7 3
357 343 281 313 332 5 49 224 1 241 327 23 134 159 158 160 154 153 157 165 161 164 167 163 164 167 166 172 176 176 176 177 174 174 174 172 171 171 165 154 359 347 351 354 358 1 4 5 1
348 335 324 3 350 346 39 325 3 12 16 54 160 169 169 176 167 175 174 176 175 170 166 167 167 168 173 176 179 179 179 178 179 180 176 177 178 188 198 238 337 341 333 337 344 357 2 0 358
344 358 348 347 337 2 354 326 333 3 36 85 152 173 183 188 187 181 182 187 185 180 176 171 171 171 176 181 180 180 181 182 187 187 187 193 205 225 256 301 296 330 332 323 324 346 351 350 352
349 345 337 325 349 343 349 333 316 347 21 43 133 179 194 203 203 199 190 192 191 188 188 179 176 178 182 183 185 187 190 195 201 209 216 224 243 269 300 316 317 354 315 338 320 354 347 346 350
341 337 328 329 332 337 335 327 312 349 5 1 35 164 197 204 210 211 204 199 198 197 196 196 188 187 185 185 193 203 208 212 219 223 226 237 273 300 313 317 324 334 340 355 336 348 347 349 354
337 333 327 320 331 331 328 312 301 302 327 341 354 352 216 209 216 212 208 208 204 203 204 203 200 196 195 196 207 219 217 229 241 254 257 273 293 302 306 314 320 322 342 339 348 350 345 349 355
334 327 324 328 340 335 318 306 324 325 315 315 318 321 302 223 220 218 212 209 205 207 210 210 209 213 213 223 245 283 285 287 294 297 292 297 300 300 297 297 312 333 336 345 3 350 347 343 350
351 348 339 334 328 335 323 331 335 336 339 325 324 324 339 223 228 223 214 207 205 208 216 213 216 216 225 238 276 294 304 305 306 304 301 300 300 294 291 283 312 334 353 346 5 2 351 346 348
351 340 347 337 333 337 351 333 339 335 345 351 340 332 343 345 5 208 198 212 204 213 227 217 221 221 231 248 261 263 275 283 301 304 304 303 305 308 300 301 322 331 343 356 14 2 352 350 346
28 17 32 13 11 21 354 358 352 341 343 343 342 342 345 354 349 343 300 210 209 204 230 237 226 220 239 241 251 266 278 297 306 310 308 304 302 312 308 309 314 326 348 27 6 356 351 350 348
42 41 32 26 32 24 38 26 9 343 337 333 327 334 341 347 350 355 350 346 346 19 9 324 214 233 250 265 274 276 281 292 298 304 305 300 303 309 312 314 330 339 8 8 358 353 351 350 349
3 2 339 7 17 56 47 68 111 101 329 349 317 314 325 338 337 346 338 343 345 10 19 38 353 294 315 304 294 289 288 294 296 303 307 311 311 313 315 329 8 18 9 0 357 354 352 349 346
357 359 8 10 6 40 21 32 40 33 330 317 338 340 333 336 336 337 333 2 351 40 58 43 2 341 335 329 320 319 316 312 316 321 320 319 321 330 345 2 6 10 3 1 356 350 347 347 344
350 339 7 12 6 4 10 15 33 334 333 340 335 339 338 336 337 334 341 354 10 9 3 11 358 349 344 343 339 338 335 330 335 337 336 338 338 344 352 359 3 2 358 353 349 347 343 341 339
351 356 339 340 345 351 351 349 348 335 329 330 328 329 333 334 336 334 332 336 342 347 346 345 344 340 340 343 342 342 339 335 333 334 333 342 352 354 353 3 12 358 352 349 345 341 339 337 336
328 330 331 336 338 339 339 351 360 343 336 331 338 336 334 334 331 330 332 334 333 333 332 338 341 345 353 359 353 341 338 339 327 327 330 336 343 353 360 11 1 355 351 346 343 341 339 338 338
341 336 339 329 327 332 331 324 333 335 338 340 338 336 335 336 334 332 333 333 333 335 343 339 343 353 357 353 345 334 324 348 342 325 327 335 344 356 4 1 358 352 350 348 346 345 341 339 337